Location: Unspecified
(41.8945°N, 0.0000°E)
Time: 05:46:00
(UTC+00:00)

DPAF - Visible Passes

Search period start: 04 April 2026 00:00
Search period end: 14 April 2026 00:00
Orbit: 756 x 840 km, 108.0° (Epoch: 29 March)

Date Brightness Start Highest point End Pass type
(mag) Time Alt. Az. Time Alt. Az. Time Alt. Az.
4 Apr 10.4 02:46:31 10° NE 02:47:39 11° NE 02:48:46 10° NNE visible
4 Apr 8.0 04:19:57 10° SE 04:25:09 53° ENE 04:30:19 10° NNW visible
4 Apr 8.6 19:51:45 10° NNE 19:56:26 38° NW 20:01:01 10° WSW visible
5 Apr 9.1 03:53:28 10° ESE 03:58:06 31° NE 04:02:41 10° N visible
5 Apr 7.4 19:24:15 10° NNE 19:29:18 69° WNW 19:34:16 10° SW visible
5 Apr 10.2 21:04:53 10° NNW 21:06:59 13° NW 21:09:05 10° WNW visible
6 Apr 9.9 03:27:33 10° E 03:31:09 19° NE 03:34:45 10° N visible
6 Apr 7.2 05:03:46 10° SSE 05:09:08 80° WSW 05:14:28 10° NNW visible
6 Apr 7.0 18:57:00 10° NNE 19:02:02 64° ESE 19:06:58 10° SSW visible
6 Apr 9.6 20:36:26 10° N 20:40:09 21° NW 20:43:49 10° W visible
7 Apr 10.3 03:02:44 10° ENE 03:04:21 11° NE 03:05:58 10° NNE visible
7 Apr 7.9 04:36:41 10° SE 04:41:56 58° ENE 04:47:07 10° NNW visible
7 Apr 8.7 20:08:35 10° N 20:13:11 35° NW 20:17:40 10° WSW visible
8 Apr 9.0 04:10:08 10° ESE 04:14:51 33° NE 04:19:31 10° N visible
8 Apr 7.5 19:41:02 10° NNE 19:46:03 64° WNW 19:50:58 10° SW visible
8 Apr 10.3 21:21:58 10° NNW 21:23:41 12° NW 21:25:24 10° WNW visible
9 Apr 9.9 03:44:08 10° E 03:47:53 20° NE 03:51:36 10° N visible
9 Apr 7.0 19:13:45 10° NNE 19:18:48 69° ESE 19:23:45 10° SSW visible
9 Apr 9.7 20:53:19 10° N 20:56:52 19° NW 21:00:22 10° W visible
10 Apr 10.3 03:19:05 10° ENE 03:21:04 12° NE 03:23:02 10° NNE visible
10 Apr 7.8 04:53:26 10° SE 04:58:42 62° ENE 05:03:54 10° NNW visible
10 Apr 8.8 20:25:25 10° N 20:29:54 33° NW 20:34:18 10° WSW visible
11 Apr 8.9 04:26:48 10° ESE 04:31:35 35° NE 04:36:19 10° N visible
11 Apr 7.6 19:57:50 10° NNE 20:02:48 59° WNW 20:07:40 10° SW visible
11 Apr 10.3 21:39:10 10° NNW 21:40:22 11° NW 21:41:35 10° NW visible
12 Apr 9.8 04:00:43 10° E 04:04:36 21° NE 04:08:28 10° N visible
12 Apr 6.9 19:30:30 10° NNE 19:35:33 75° ESE 19:40:31 10° SSW visible
12 Apr 9.7 21:10:12 10° N 21:13:33 18° NW 21:16:53 10° W visible
13 Apr 10.2 03:35:29 10° ENE 03:37:46 13° NE 03:40:01 10° NNE visible
13 Apr 7.4 19:03:29 10° NE 19:08:11 39° ESE 19:12:48 10° S visible
13 Apr 8.9 20:42:14 10° N 20:46:36 30° NW 20:50:55 10° WSW visible
